Date String (YYYY-MM-DD hh:mm:ss) UTC,Instrument flags,Ambient pressure (hPa),Sample flow (lpm),Bypass flow (lpm),Sample temperature (°C),Ambient temperature (°C),ASC tube jacket temperature (°C),LED temperature (°C),Box temperature (°C),Sample RH (%),Span deviation,Mass concentration (μg/m³),Mass concentration (μg/m³),Mass concentration (μg/m³)
DateTimeUTC,F1_M11,P_M11,Q1_M11,Q2_M11,T1_M11,T2_M11,T3_M11,T4_M11,T5_M11,U1_M11,ZSPAN_M11,X0_M11,X2_M11,X1_M11
2022-08-13 07:00:00,,0829.8,5.00,0.00,29.2,26.9,00.0,38.0,30.9,25.3,0000.0,0013.99,0005.51,0004.44
2022-08-13 07:01:00,,0829.8,5.01,0.00,29.2,27.0,00.0,38.0,30.9,25.4,0000.0,0014.08,0005.54,0004.45
2022-08-13 07:02:00,,0829.8,4.99,0.00,29.1,27.1,00.0,38.0,30.9,25.4,0000.0,0014.36,0005.57,0004.45
2022-08-13 07:03:00,,0829.8,5.00,0.00,29.1,27.3,00.0,38.0,30.9,25.5,0000.0,0014.30,0005.55,0004.45
2022-08-13 07:04:00,,0829.9,5.00,0.00,29.1,27.5,00.0,38.0,31.0,25.4,0000.0,0014.36,0005.52,0004.45
2022-08-13 07:05:00,,0829.9,4.99,0.00,29.1,27.7,00.0,38.0,31.0,25.5,0000.0,0014.72,0005.52,0004.45
2022-08-13 07:06:00,,0829.9,5.00,0.00,29.2,27.8,00.0,38.0,31.1,25.4,0000.0,0014.14,0005.51,0004.45
2022-08-13 07:07:00,,0829.9,5.00,0.00,29.2,28.0,00.0,38.0,31.1,25.3,0000.0,0014.33,0005.53,0004.45
2022-08-13 07:08:00,,0829.9,5.00,0.00,29.2,28.1,00.0,38.0,31.2,25.3,0000.0,0014.29,0005.56,0004.44
2022-08-13 07:09:00,,0829.9,5.00,0.00,29.3,28.2,00.0,38.0,31.2,25.2,0000.0,0014.03,0005.60,0004.44
2022-08-13 07:10:00,,0829.9,5.01,0.00,29.3,28.3,00.0,38.0,31.2,25.2,0000.0,0013.86,0005.60,0004.44
2022-08-13 07:11:00,,0829.9,5.01,0.00,29.3,28.4,00.0,38.1,31.3,25.1,0000.0,0014.20,0005.62,0004.44
2022-08-13 07:12:00,,0829.8,5.00,0.00,29.4,28.5,00.0,38.1,31.3,25.2,0000.0,0014.92,0005.66,0004.45
2022-08-13 07:13:00,,0829.9,4.98,0.00,29.4,28.6,00.0,38.1,31.4,25.1,0000.0,0014.61,0005.67,0004.45
2022-08-13 07:14:00,,0830.0,5.01,0.00,29.4,28.6,00.0,38.1,31.4,25.1,0000.0,0013.69,0005.68,0004.46
2022-08-13 07:15:00,,0829.9,5.01,0.00,29.5,28.6,00.0,38.2,31.4,25.2,0000.0,0014.46,0005.67,0004.48
2022-08-13 07:16:00,,0829.9,5.00,0.00,29.5,28.0,00.0,38.1,31.2,25.3,0000.0,0014.57,0005.69,0004.49
2022-08-13 07:17:00,,0829.9,5.00,0.00,29.4,27.3,00.0,38.1,31.0,25.4,0000.0,0015.14,0005.71,0004.51
2022-08-13 07:18:00,,0829.9,5.01,0.00,29.3,27.0,00.0,38.0,30.9,25.5,0000.0,0014.86,0005.70,0004.53
2022-08-13 07:19:00,,0829.9,4.99,0.00,29.2,27.0,00.0,38.0,30.9,25.7,0000.0,0015.35,0005.72,0004.55
2022-08-13 07:20:00,,0829.9,5.01,0.00,29.2,27.1,00.0,38.0,30.9,25.9,0000.0,0015.44,0005.75,0004.57
2022-08-13 07:21:00,,0830.0,4.99,0.00,29.1,27.3,00.0,38.0,30.9,25.9,0000.0,0015.41,0005.80,0004.59
2022-08-13 07:22:00,,0830.1,5.01,0.00,29.1,27.4,00.0,38.0,31.0,26.0,0000.0,0015.51,0005.85,0004.61
2022-08-13 07:23:00,,0830.1,5.00,0.00,29.2,27.6,00.0,38.0,31.0,25.9,0000.0,0015.61,0005.81,0004.62
2022-08-13 07:24:00,,0830.1,5.00,0.00,29.2,27.8,00.0,38.0,31.1,25.8,0000.0,0016.41,0005.74,0004.61
2022-08-13 07:25:00,,0830.1,4.99,0.00,29.2,27.9,00.0,38.0,31.1,25.7,0000.0,0016.53,0005.66,0004.59
2022-08-13 07:26:00,,0830.2,5.00,0.00,29.2,28.1,00.0,38.0,31.2,25.8,0000.0,0015.15,0005.69,0004.57
2022-08-13 07:27:00,,0830.3,5.00,0.00,29.3,28.2,00.0,38.0,31.2,26.1,0000.0,0015.06,0005.74,0004.56
2022-08-13 07:28:00,,0830.5,4.99,0.00,29.3,28.3,00.0,38.0,31.3,26.5,0000.0,0014.74,0005.75,0004.56
2022-08-13 07:29:00,,0830.6,5.00,0.00,29.3,28.4,00.0,38.0,31.3,26.8,0000.0,0014.96,0005.72,0004.54
2022-08-13 07:30:00,,0830.6,5.01,0.00,29.4,28.5,00.0,38.1,31.3,27.1,0000.0,0016.06,0005.72,0004.52
2022-08-13 07:31:00,,0830.6,5.00,0.00,29.4,28.6,00.0,38.1,31.4,27.9,0000.0,0016.71,0005.67,0004.51
2022-08-13 07:32:00,,0830.6,5.00,0.00,29.4,28.6,00.0,38.1,31.4,28.9,0000.0,0017.54,0005.65,0004.52
2022-08-13 07:33:00,,0830.6,4.99,0.00,29.5,28.7,00.0,38.1,31.5,28.6,0000.0,0018.14,0005.65,0004.54
2022-08-13 07:34:00,,0830.7,5.01,0.00,29.5,28.7,00.0,38.2,31.5,28.5,0000.0,0018.58,0005.75,0004.56
2022-08-13 07:35:00,,0830.7,5.00,0.00,29.5,28.8,00.0,38.2,31.5,29.0,0000.0,0019.04,0005.85,0004.59
2022-08-13 07:36:00,,0830.8,5.00,0.00,29.6,28.8,00.0,38.2,31.6,28.9,0000.0,0020.24,0006.02,0004.64
2022-08-13 07:37:00,,0830.7,5.00,0.00,29.6,28.9,00.0,38.3,31.6,28.7,0000.0,0020.56,0006.09,0004.67
2022-08-13 07:38:00,,0830.7,5.00,0.00,29.6,28.9,00.0,38.3,31.7,28.6,0000.0,0022.18,0006.10,0004.70
2022-08-13 07:39:00,,0830.7,5.00,0.00,29.7,28.6,00.0,38.3,31.5,28.7,0000.0,0023.79,0006.14,0004.69
2022-08-13 07:40:00,,0830.8,4.99,0.00,29.6,27.7,00.0,38.2,31.2,29.1,0000.0,0024.41,0006.22,0004.70
2022-08-13 07:41:00,,0830.8,4.99,0.00,29.5,27.2,00.0,38.2,31.1,29.5,0000.0,0023.18,0006.29,0004.69
2022-08-13 07:42:00,,0830.8,5.01,0.00,29.4,27.1,00.0,38.2,31.0,29.8,0000.0,0023.78,0006.37,0004.67
2022-08-13 07:43:00,,0830.7,5.00,0.00,29.3,27.1,00.0,38.2,31.0,30.2,0000.0,0024.08,0006.47,0004.63
2022-08-13 07:44:00,,0830.7,5.00,0.00,29.3,27.3,00.0,38.1,31.1,30.4,0000.0,0024.75,0006.56,0004.60
2022-08-13 07:45:00,,0830.7,5.00,0.00,29.3,27.4,00.0,38.1,31.1,30.7,0000.0,0026.71,0006.61,0004.54
2022-08-13 07:46:00,,0830.8,4.99,0.00,29.3,27.6,00.0,38.1,31.1,30.8,0000.0,0026.81,0006.60,0004.48
2022-08-13 07:47:00,,0830.7,5.00,0.00,29.3,27.8,00.0,38.1,31.2,31.0,0000.0,0026.82,0006.55,0004.42
2022-08-13 07:48:00,,0830.8,5.00,0.00,29.3,27.9,00.0,38.1,31.2,31.2,0000.0,0027.53,0006.55,0004.37
2022-08-13 07:49:00,,0830.8,5.00,0.00,29.3,28.1,00.0,38.1,31.2,31.4,0000.0,0026.86,0006.49,0004.30
2022-08-13 07:50:00,,0830.8,5.00,0.00,29.3,28.2,00.0,38.1,31.3,31.7,0000.0,0025.66,0006.44,0004.25
2022-08-13 07:51:00,,0830.9,5.00,0.00,29.4,28.3,00.0,38.1,31.3,31.8,0000.0,0025.88,0006.45,0004.19
2022-08-13 07:52:00,,0830.9,5.00,0.00,29.4,28.4,00.0,38.2,31.3,31.8,0000.0,0027.07,0006.53,0004.15
2022-08-13 07:53:00,,0830.9,5.00,0.00,29.4,28.5,00.0,38.2,31.4,32.0,0000.0,0028.00,0006.50,0004.11
2022-08-13 07:54:00,,0830.9,5.00,0.00,29.4,28.5,00.0,38.2,31.4,32.0,0000.0,0027.70,0006.48,0004.06
2022-08-13 07:55:00,,0830.9,5.00,0.00,29.5,28.6,00.0,38.2,31.5,31.9,0000.0,0028.29,0006.45,0004.02
2022-08-13 07:56:00,,0830.9,5.00,0.00,29.5,28.7,00.0,38.2,31.5,32.0,0000.0,0026.77,0006.30,0003.98
2022-08-13 07:57:00,,0830.9,5.01,0.00,29.5,28.8,00.0,38.2,31.5,32.0,0000.0,0025.39,0006.21,0003.94
2022-08-13 07:58:00,,0830.9,5.00,0.00,29.6,28.8,00.0,38.3,31.6,31.9,0000.0,0024.20,0006.15,0003.91
2022-08-13 07:59:00,,0831.0,5.01,0.00,29.6,28.9,00.0,38.3,31.6,31.9,0000.0,0023.65,0006.02,0003.87
